IRIDIUM 169 (43926 NORAD) Tracking and Keplerian Element Data

This shows tracking and keplerian element data for the satellite.

Feedback or suggestion? Click here.




ElementValue
Catalog43926
NameIRIDIUM 169
Epoch Orbit31861
Epoch Day35.09382398
Epoch Year2025
RAAN233.2926
Inclination86.4197
Eccentricity0.0002784
Argument of Perigee124.2794
Mean Anonmoly235.8668
Mean Motion14.38605419
Decay Rate2.23E-06
L11 43926U 19002E 25035.09382398 .00000223 00000+0 66494-4 0 9992
L22 43926 86.4197 233.2926 0002784 124.2794 235.8668 14.38605419318616



Live tracking and technical data element details for IRIDIUM 169 (NORAD 43926). IRIDIUM 169 can be tracked NOW for your location showing map with azimuth and elevation plus other details from your city location.







IsCatalogInMostPopularTable: catalog: 43926, numindb: 484
Update: records affected: 1



GetName: 43926 IRIDIUM 169

Hit Count: updated at: Thu, 15 May 2025 10:13:22 GMT